QPF
0.01 0.05 0.06 0.08 0.07 0.01 0.01 0.01 0.00 0.00 0.00 0.00 0.00 0.00 0.01 0.01 0.02 0.02 0.01 0.00 0.00 0.00 0.00 0.01 0.01 0.01 0.01 0.00 0.00 0.01 0.01 0.01 0.00 0.00 0.01 0.00 0.00 0.00 0.00 0.00 0.00 0.00 0.00 0.00 0.00 0.00 0.00 0.01 0.01
0.03 0.07 0.08 0.10 0.03 0.01 0.02 0.02 0.01 0.01 0.00 0.00 0.00 0.00 0.01 0.02 0.02 0.04 0.03 0.02 0.00 0.00 0.00 0.00 0.00 0.00 0.00 0.00 0.00 0.00 0.00 0.00 0.00 0.00 0.00 0.00 0.00 0.00 0.00 0.00 0.00 0.00 0.00 0.00 0.00 0.00 0.01 0.02 0.02
0.06 0.10 0.11 0.06 0.02 0.03 0.05 0.03 0.02 0.01 0.01 0.00 0.00 0.01 0.01 0.03 0.06 0.08 0.05 0.02 0.01 0.00 0.00 0.00 0.00 0.00 0.00 0.00 0.00 0.00 0.00 0.00 0.00 0.00 0.00 0.00 0.00 0.00 0.00 0.00 0.00 0.00 0.00 0.00 0.00 0.00 0.01 0.02 0.02
0.09 0.11 0.09 0.05 0.07 0.08 0.09 0.06 0.03 0.01 0.00 0.00 0.00 0.01 0.01 0.03 0.10 0.11 0.09 0.06 0.04 0.02 0.02 0.02 0.02 0.02 0.01 0.01 0.00 0.00 0.00 0.00 0.00 0.00 0.00 0.00 0.00 0.00 0.00 0.00 0.00 0.00 0.00 0.00 0.00 0.00 0.01 0.02 0.02
0.08 0.08 0.05 0.05 0.12 0.13 0.12 0.07 0.04 0.02 0.01 0.00 0.00 0.01 0.02 0.06 0.13 0.16 0.18 0.15 0.15 0.11 0.06 0.05 0.07 0.06 0.04 0.03 0.02 0.02 0.02 0.01 0.01 0.00 0.00 0.00 0.00 0.00 0.00 0.00 0.00 0.00 0.00 0.00 0.00 0.00 0.01 0.02 0.03
0.07 0.05 0.06 0.08 0.16 0.17 0.16 0.13 0.08 0.05 0.02 0.01 0.02 0.03 0.04 0.10 0.19 0.25 0.29 0.35 0.39 0.37 0.24 0.17 0.18 0.17 0.13 0.10 0.08 0.06 0.05 0.04 0.03 0.02 0.01 0.01 0.01 0.01 0.00 0.00 0.00 0.00 0.00 0.00 0.00 0.00 0.01 0.02 0.03
0.05 0.03 0.04 0.07 0.13 0.24 0.27 0.18 0.12 0.10 0.06 0.03 0.02 0.04 0.06 0.12 0.22 0.31 0.37 0.44 0.51 0.55 0.49 0.38 0.29 0.23 0.20 0.17 0.14 0.14 0.13 0.11 0.08 0.06 0.04 0.03 0.02 0.01 0.00 0.00 0.00 0.00 0.00 0.00 0.00 0.00 0.01 0.02 0.03
0.04 0.02 0.03 0.07 0.10 0.19 0.25 0.19 0.13 0.10 0.07 0.03 0.02 0.04 0.05 0.09 0.20 0.31 0.39 0.43 0.46 0.48 0.42 0.39 0.39 0.35 0.29 0.23 0.22 0.25 0.24 0.22 0.18 0.13 0.09 0.07 0.04 0.02 0.01 0.00 0.00 0.00 0.00 0.00 0.00 0.00 0.00 0.01 0.02
0.03 0.03 0.02 0.03 0.05 0.07 0.13 0.16 0.10 0.05 0.04 0.03 0.01 0.02 0.03 0.05 0.12 0.19 0.26 0.33 0.36 0.38 0.36 0.34 0.34 0.35 0.35 0.30 0.27 0.31 0.35 0.32 0.29 0.23 0.23 0.17 0.07 0.03 0.02 0.02 0.01 0.00 0.00 0.00 0.00 0.00 0.00 0.01 0.02
0.03 0.02 0.02 0.01 0.02 0.03 0.05 0.07 0.05 0.04 0.03 0.02 0.01 0.02 0.02 0.05 0.08 0.11 0.14 0.18 0.20 0.19 0.20 0.19 0.21 0.24 0.27 0.30 0.35 0.40 0.39 0.36 0.30 0.23 0.19 0.16 0.10 0.06 0.04 0.02 0.03 0.04 0.03 0.02 0.01 0.01 0.00 0.00 0.01
0.03 0.02 0.01 0.01 0.02 0.03 0.03 0.03 0.03 0.03 0.02 0.02 0.01 0.01 0.01 0.02 0.04 0.05 0.06 0.06 0.06 0.07 0.07 0.07 0.09 0.10 0.12 0.17 0.25 0.30 0.33 0.40 0.36 0.29 0.22 0.18 0.14 0.08 0.06 0.05 0.04 0.05 0.07 0.04 0.02 0.02 0.01 0.00 0.00
0.01 0.01 0.01 0.01 0.03 0.03 0.03 0.02 0.02 0.01 0.01 0.01 0.01 0.01 0.01 0.01 0.02 0.02 0.02 0.02 0.03 0.03 0.04 0.03 0.03 0.04 0.05 0.07 0.09 0.13 0.19 0.25 0.30 0.28 0.23 0.21 0.17 0.12 0.08 0.08 0.09 0.08 0.08 0.08 0.05 0.02 0.01 0.00 0.00
0.01 0.02 0.03 0.03 0.04 0.03 0.02 0.01 0.01 0.01 0.00 0.00 0.00 0.00 0.00 0.00 0.00 0.00 0.00 0.01 0.01 0.01 0.01 0.02 0.02 0.02 0.02 0.02 0.03 0.04 0.05 0.07 0.12 0.19 0.23 0.23 0.26 0.26 0.20 0.14 0.15 0.12 0.12 0.13 0.13 0.08 0.03 0.00 0.00
0.02 0.02 0.02 0.03 0.02 0.02 0.02 0.01 0.00 0.00 0.00 0.00 0.00 0.00 0.00 0.00 0.00 0.00 0.00 0.00 0.00 0.00 0.01 0.01 0.01 0.01 0.01 0.01 0.01 0.01 0.02 0.01 0.03 0.07 0.14 0.19 0.19 0.21 0.22 0.16 0.13 0.14 0.19 0.23 0.24 0.15 0.06 0.02 0.01
0.02 0.02 0.02 0.02 0.03 0.02 0.01 0.00 0.00 0.00 0.00 0.00 0.00 0.00 0.00 0.00 0.00 0.00 0.00 0.00 0.00 0.00 0.00 0.00 0.00 0.00 0.00 0.00 0.00 0.01 0.01 0.01 0.01 0.02 0.03 0.08 0.11 0.11 0.13 0.11 0.09 0.11 0.18 0.23 0.25 0.18 0.09 0.05 0.02
0.02 0.02 0.02 0.02 0.01 0.01 0.01 0.00 0.00 0.00 0.00 0.00 0.00 0.00 0.00 0.00 0.00 0.00 0.00 0.00 0.00 0.00 0.00 0.00 0.00 0.00 0.00 0.00 0.00 0.00 0.00 0.00 0.00 0.00 0.00 0.01 0.04 0.06 0.08 0.09 0.08 0.09 0.14 0.21 0.25 0.23 0.17 0.12 0.07
0.01 0.01 0.01 0.01 0.01 0.01 0.01 0.00 0.00 0.00 0.00 0.00 0.00 0.00 0.00 0.00 0.00 0.00 0.00 0.00 0.00 0.00 0.00 0.00 0.00 0.00 0.00 0.00 0.00 0.00 0.00 0.00 0.00 0.00 0.00 0.00 0.01 0.03 0.04 0.07 0.07 0.08 0.11 0.14 0.20 0.22 0.20 0.17 0.12
0.00 0.00 0.00 0.00 0.00 0.01 0.01 0.00 0.00 0.00 0.00 0.00 0.00 0.00 0.00 0.00 0.00 0.00 0.00 0.00 0.00 0.00 0.00 0.00 0.00 0.00 0.00 0.00 0.00 0.00 0.00 0.00 0.00 0.00 0.00 0.00 0.00 0.01 0.02 0.05 0.08 0.07 0.08 0.10 0.17 0.24 0.26 0.22 0.18
0.00 0.00 0.00 0.00 0.00 0.00 0.00 0.00 0.00 0.00 0.00 0.00 0.00 0.00 0.00 0.00 0.00 0.00 0.00 0.00 0.00 0.00 0.00 0.00 0.00 0.00 0.00 0.00 0.00 0.00 0.00 0.00 0.00 0.00 0.00 0.00 0.00 0.00 0.01 0.02 0.04 0.06 0.06 0.07 0.13 0.21 0.27 0.27 0.24
0.00 0.00 0.00 0.00 0.00 0.00 0.00 0.00 0.00 0.00 0.00 0.00 0.00 0.00 0.00 0.00 0.00 0.00 0.00 0.00 0.00 0.00 0.00 0.00 0.00 0.00 0.00 0.00 0.00 0.00 0.00 0.00 0.00 0.00 0.00 0.00 0.00 0.00 0.01 0.01 0.01 0.03 0.05 0.05 0.07 0.12 0.20 0.27 0.28
0.00 0.00 0.00 0.00 0.00 0.00 0.00 0.00 0.00 0.00 0.00 0.00 0.00 0.00 0.00 0.00 0.00 0.00 0.00 0.00 0.00 0.00 0.00 0.00 0.00 0.00 0.00 0.00 0.00 0.00 0.00 0.00 0.00 0.00 0.00 0.00 0.00 0.00 0.00 0.01 0.01 0.02 0.02 0.03 0.05 0.07 0.13 0.22 0.29
0.00 0.00 0.00 0.00 0.00 0.00 0.00 0.00 0.00 0.00 0.00 0.00 0.00 0.00 0.00 0.00 0.00 0.00 0.00 0.00 0.00 0.00 0.00 0.00 0.00 0.00 0.00 0.00 0.00 0.00 0.00 0.00 0.00 0.00 0.00 0.00 0.00 0.00 0.00 0.00 0.01 0.01 0.02 0.02 0.02 0.04 0.08 0.14 0.22
0.00 0.00 0.00 0.00 0.00 0.00 0.00 0.00 0.00 0.00 0.00 0.00 0.00 0.00 0.00 0.00 0.00 0.00 0.00 0.00 0.00 0.00 0.00 0.00 0.00 0.00 0.00 0.00 0.00 0.00 0.00 0.00 0.00 0.00 0.00 0.01 0.01 0.01 0.01 0.01 0.01 0.02 0.02 0.02 0.02 0.04 0.06 0.08 0.12
0.00 0.00 0.00 0.00 0.00 0.00 0.00 0.00 0.00 0.00 0.00 0.00 0.00 0.00 0.00 0.00 0.00 0.00 0.00 0.00 0.00 0.00 0.00 0.00 0.00 0.00 0.00 0.00 0.00 0.00 0.00 0.00 0.00 0.01 0.01 0.01 0.01 0.02 0.02 0.02 0.02 0.02 0.02 0.03 0.03 0.03 0.05 0.07 0.10
0.00 0.00 0.00 0.00 0.00 0.00 0.00 0.00 0.00 0.00 0.00 0.00 0.00 0.00 0.00 0.00 0.00 0.00 0.00 0.00 0.00 0.00 0.00 0.00 0.00 0.00 0.00 0.00 0.00 0.00 0.00 0.01 0.01 0.01 0.01 0.01 0.03 0.02 0.02 0.02 0.02 0.03 0.03 0.03 0.03 0.03 0.05 0.07 0.10
0.00 0.00 0.00 0.00 0.00 0.00 0.00 0.00 0.00 0.00 0.00 0.00 0.00 0.00 0.00 0.00 0.00 0.00 0.00 0.00 0.00 0.00 0.00 0.00 0.00 0.00 0.00 0.00 0.00 0.00 0.00 0.01 0.02 0.02 0.01 0.02 0.04 0.04 0.03 0.03 0.03 0.03 0.03 0.03 0.03 0.04 0.05 0.08 0.09
0.00 0.00 0.00 0.00 0.00 0.00 0.00 0.00 0.00 0.00 0.00 0.00 0.00 0.00 0.00 0.00 0.00 0.00 0.00 0.00 0.00 0.00 0.00 0.00 0.00 0.00 0.00 0.00 0.00 0.00 0.00 0.01 0.02 0.02 0.02 0.04 0.05 0.04 0.04 0.04 0.05 0.05 0.05 0.05 0.06 0.07 0.07 0.08 0.08
0.00 0.00 0.00 0.00 0.00 0.00 0.00 0.00 0.00 0.00 0.00 0.00 0.00 0.00 0.00 0.00 0.00 0.00 0.00 0.00 0.00 0.00 0.00 0.00 0.00 0.00 0.00 0.00 0.00 0.00 0.00 0.00 0.01 0.01 0.02 0.05 0.05 0.02 0.02 0.02 0.04 0.05 0.06 0.07 0.09 0.11 0.12 0.11 0.11
0.00 0.00 0.00 0.00 0.00 0.00 0.00 0.00 0.00 0.00 0.00 0.00 0.00 0.00 0.00 0.00 0.00 0.00 0.00 0.00 0.00 0.00 0.00 0.00 0.00 0.00 0.00 0.00 0.00 0.00 0.00 0.00 0.00 0.00 0.01 0.02 0.02 0.01 0.01 0.01 0.03 0.04 0.05 0.07 0.08 0.10 0.10 0.12 0.14
0.00 0.00 0.00 0.00 0.00 0.00 0.00 0.00 0.00 0.00 0.00 0.00 0.00 0.00 0.00 0.00 0.00 0.00 0.00 0.00 0.00 0.00 0.00 0.00 0.00 0.00 0.00 0.00 0.00 0.00 0.00 0.00 0.00 0.00 0.00 0.00 0.00 0.00 0.00 0.01 0.02 0.04 0.04 0.05 0.07 0.09 0.09 0.10 0.13
MSLP
1011.04 1012.33 1013.83 1015.33 1016.63 1017.59 1018.11 1018.20 1017.92 1017.44 1016.91 1016.50 1016.27 1016.24 1016.36 1016.51 1016.58 1016.48 1016.17 1015.68 1015.09 1014.52 1014.08 1013.85 1013.87 1014.09 1014.44 1014.83 1015.19 1015.43 1015.56 1015.59 1015.56 1015.54 1015.56 1015.65 1015.80 1015.97 1016.12 1016.23 1016.27 1016.24 1016.17 1016.09 1016.03 1016.00 1016.02 1016.06 1016.11
1011.55 1013.02 1014.63 1016.17 1017.44 1018.29 1018.64 1018.53 1018.05 1017.38 1016.70 1016.18 1015.87 1015.81 1015.91 1016.07 1016.17 1016.10 1015.84 1015.41 1014.90 1014.40 1014.04 1013.87 1013.94 1014.19 1014.55 1014.95 1015.29 1015.52 1015.63 1015.65 1015.63 1015.61 1015.63 1015.71 1015.84 1015.99 1016.11 1016.18 1016.20 1016.16 1016.09 1016.02 1015.98 1015.98 1016.02 1016.08 1016.14
1012.15 1013.74 1015.41 1016.93 1018.13 1018.86 1019.07 1018.81 1018.21 1017.43 1016.68 1016.09 1015.75 1015.66 1015.73 1015.87 1015.95 1015.89 1015.64 1015.25 1014.79 1014.37 1014.08 1013.97 1014.08 1014.34 1014.70 1015.06 1015.36 1015.55 1015.63 1015.62 1015.59 1015.56 1015.59 1015.67 1015.79 1015.91 1016.01 1016.05 1016.04 1015.99 1015.93 1015.88 1015.87 1015.90 1015.98 1016.06 1016.14
1012.78 1014.43 1016.10 1017.57 1018.68 1019.30 1019.41 1019.07 1018.41 1017.62 1016.86 1016.28 1015.95 1015.83 1015.88 1015.97 1016.00 1015.90 1015.64 1015.26 1014.83 1014.47 1014.23 1014.17 1014.29 1014.55 1014.86 1015.16 1015.38 1015.50 1015.52 1015.48 1015.43 1015.41 1015.44 1015.53 1015.64 1015.76 1015.85 1015.88 1015.86 1015.81 1015.75 1015.73 1015.75 1015.83 1015.94 1016.06 1016.17
1013.40 1015.06 1016.68 1018.06 1019.06 1019.59 1019.63 1019.28 1018.65 1017.92 1017.25 1016.74 1016.43 1016.32 1016.33 1016.36 1016.31 1016.14 1015.84 1015.44 1015.04 1014.70 1014.50 1014.46 1014.57 1014.79 1015.03 1015.23 1015.36 1015.38 1015.34 1015.25 1015.18 1015.17 1015.22 1015.33 1015.46 1015.59 1015.68 1015.71 1015.70 1015.66 1015.63 1015.63 1015.70 1015.81 1015.96 1016.11 1016.25
1013.99 1015.60 1017.12 1018.38 1019.27 1019.72 1019.74 1019.42 1018.89 1018.29 1017.75 1017.36 1017.13 1017.04 1017.02 1016.98 1016.85 1016.59 1016.23 1015.81 1015.40 1015.07 1014.88 1014.83 1014.91 1015.06 1015.20 1015.29 1015.30 1015.22 1015.10 1014.98 1014.90 1014.90 1014.98 1015.13 1015.29 1015.45 1015.55 1015.60 1015.59 1015.57 1015.57 1015.61 1015.71 1015.86 1016.04 1016.22 1016.38
1014.55 1016.07 1017.45 1018.56 1019.32 1019.70 1019.72 1019.48 1019.09 1018.66 1018.29 1018.04 1017.91 1017.86 1017.82 1017.72 1017.51 1017.18 1016.76 1016.30 1015.88 1015.56 1015.35 1015.28 1015.30 1015.35 1015.38 1015.35 1015.24 1015.07 1014.88 1014.73 1014.66 1014.68 1014.80 1014.98 1015.18 1015.36 1015.48 1015.53 1015.54 1015.54 1015.56 1015.63 1015.76 1015.94 1016.15 1016.35 1016.51
1015.10 1016.48 1017.69 1018.63 1019.26 1019.56 1019.60 1019.45 1019.20 1018.95 1018.77 1018.68 1018.65 1018.65 1018.60 1018.46 1018.19 1017.81 1017.35 1016.87 1016.44 1016.10 1015.88 1015.77 1015.71 1015.67 1015.58 1015.43 1015.22 1014.97 1014.73 1014.56 1014.49 1014.54 1014.69 1014.90 1015.12 1015.31 1015.44 1015.50 1015.51 1015.51 1015.55 1015.64 1015.79 1016.00 1016.23 1016.44 1016.61
1015.64 1016.87 1017.89 1018.65 1019.14 1019.37 1019.42 1019.34 1019.24 1019.16 1019.14 1019.19 1019.26 1019.30 1019.26 1019.10 1018.80 1018.39 1017.92 1017.44 1017.01 1016.67 1016.43 1016.27 1016.14 1016.00 1015.81 1015.56 1015.25 1014.94 1014.67 1014.49 1014.43 1014.50 1014.67 1014.89 1015.11 1015.29 1015.39 1015.43 1015.43 1015.43 1015.47 1015.58 1015.75 1015.98 1016.23 1016.46 1016.63
1016.19 1017.25 1018.09 1018.68 1019.03 1019.20 1019.24 1019.23 1019.23 1019.28 1019.40 1019.55 1019.70 1019.78 1019.75 1019.59 1019.29 1018.88 1018.42 1017.96 1017.55 1017.22 1016.96 1016.76 1016.56 1016.33 1016.05 1015.71 1015.34 1014.99 1014.70 1014.51 1014.46 1014.54 1014.70 1014.90 1015.09 1015.23 1015.29 1015.29 1015.26 1015.25 1015.29 1015.40 1015.59 1015.84 1016.11 1016.35 1016.54
1016.72 1017.64 1018.32 1018.75 1018.99 1019.10 1019.13 1019.16 1019.24 1019.38 1019.58 1019.80 1019.98 1020.09 1020.07 1019.91 1019.63 1019.24 1018.82 1018.40 1018.02 1017.70 1017.44 1017.19 1016.94 1016.64 1016.29 1015.89 1015.47 1015.08 1014.78 1014.60 1014.54 1014.60 1014.74 1014.90 1015.03 1015.10 1015.11 1015.06 1014.99 1014.95 1014.98 1015.11 1015.32 1015.59 1015.88 1016.14 1016.35
1017.24 1018.04 1018.58 1018.90 1019.06 1019.12 1019.15 1019.21 1019.33 1019.52 1019.75 1019.99 1020.18 1020.28 1020.26 1020.10 1019.84 1019.50 1019.12 1018.75 1018.41 1018.11 1017.83 1017.56 1017.26 1016.90 1016.49 1016.05 1015.60 1015.20 1014.89 1014.70 1014.63 1014.66 1014.75 1014.84 1014.90 1014.90 1014.84 1014.73 1014.63 1014.57 1014.60 1014.73 1014.96 1015.26 1015.57 1015.86 1016.08
1017.70 1018.41 1018.87 1019.12 1019.23 1019.28 1019.32 1019.40 1019.55 1019.75 1019.98 1020.19 1020.35 1020.42 1020.37 1020.22 1019.97 1019.66 1019.33 1019.01 1018.71 1018.42 1018.15 1017.85 1017.50 1017.10 1016.66 1016.18 1015.72 1015.31 1014.99 1014.78 1014.69 1014.67 1014.70 1014.73 1014.71 1014.64 1014.51 1014.36 1014.23 1014.17 1014.20 1014.34 1014.59 1014.91 1015.24 1015.55 1015.79
1018.11 1018.75 1019.16 1019.38 1019.50 1019.57 1019.64 1019.75 1019.90 1020.10 1020.29 1020.45 1020.55 1020.56 1020.48 1020.31 1020.07 1019.79 1019.50 1019.21 1018.93 1018.66 1018.37 1018.05 1017.67 1017.24 1016.77 1016.28 1015.81 1015.39 1015.07 1014.84 1014.71 1014.65 1014.61 1014.57 1014.48 1014.35 1014.18 1014.01 1013.87 1013.81 1013.86 1014.02 1014.28 1014.61 1014.96 1015.28 1015.53
1018.46 1019.05 1019.43 1019.67 1019.82 1019.94 1020.06 1020.21 1020.37 1020.54 1020.68 1020.78 1020.80 1020.75 1020.61 1020.42 1020.17 1019.90 1019.63 1019.37 1019.10 1018.82 1018.52 1018.18 1017.77 1017.32 1016.84 1016.34 1015.88 1015.46 1015.13 1014.89 1014.72 1014.60 1014.50 1014.40 1014.26 1014.09 1013.91 1013.73 1013.61 1013.57 1013.63 1013.81 1014.08 1014.41 1014.75 1015.07 1015.32
1018.76 1019.30 1019.68 1019.94 1020.15 1020.34 1020.53 1020.71 1020.89 1021.03 1021.12 1021.14 1021.09 1020.96 1020.78 1020.54 1020.29 1020.02 1019.76 1019.49 1019.22 1018.94 1018.61 1018.25 1017.83 1017.37 1016.89 1016.41 1015.95 1015.55 1015.21 1014.94 1014.74 1014.57 1014.42 1014.26 1014.09 1013.90 1013.72 1013.56 1013.46 1013.44 1013.53 1013.71 1013.97 1014.29 1014.62 1014.92 1015.16
1019.02 1019.51 1019.89 1020.20 1020.47 1020.73 1020.98 1021.21 1021.39 1021.51 1021.54 1021.50 1021.37 1021.18 1020.94 1020.68 1020.41 1020.14 1019.87 1019.60 1019.31 1019.01 1018.66 1018.28 1017.86 1017.41 1016.94 1016.49 1016.06 1015.67 1015.33 1015.05 1014.80 1014.59 1014.39 1014.19 1013.99 1013.79 1013.62 1013.48 1013.41 1013.41 1013.50 1013.68 1013.93 1014.21 1014.51 1014.79 1015.02
1019.27 1019.71 1020.08 1020.43 1020.77 1021.10 1021.40 1021.65 1021.83 1021.91 1021.89 1021.77 1021.58 1021.34 1021.07 1020.78 1020.50 1020.23 1019.96 1019.68 1019.38 1019.05 1018.68 1018.29 1017.87 1017.44 1017.01 1016.59 1016.20 1015.84 1015.51 1015.21 1014.93 1014.67 1014.42 1014.18 1013.95 1013.74 1013.57 1013.45 1013.39 1013.41 1013.50 1013.66 1013.87 1014.11 1014.37 1014.62 1014.84
1019.51 1019.91 1020.28 1020.67 1021.06 1021.43 1021.77 1022.02 1022.17 1022.20 1022.11 1021.93 1021.69 1021.41 1021.12 1020.83 1020.56 1020.29 1020.02 1019.73 1019.41 1019.06 1018.68 1018.29 1017.88 1017.48 1017.09 1016.73 1016.38 1016.05 1015.74 1015.43 1015.11 1014.80 1014.50 1014.21 1013.94 1013.71 1013.53 1013.41 1013.36 1013.36 1013.43 1013.56 1013.72 1013.92 1014.14 1014.37 1014.58
1019.76 1020.13 1020.52 1020.94 1021.37 1021.78 1022.11 1022.33 1022.42 1022.38 1022.21 1021.96 1021.66 1021.36 1021.07 1020.80 1020.55 1020.31 1020.05 1019.76 1019.43 1019.07 1018.67 1018.27 1017.88 1017.52 1017.18 1016.87 1016.58 1016.30 1016.00 1015.68 1015.34 1014.98 1014.61 1014.26 1013.95 1013.68 1013.47 1013.32 1013.24 1013.22 1013.25 1013.33 1013.44 1013.59 1013.77 1013.98 1014.20
1020.01 1020.40 1020.83 1021.30 1021.76 1022.17 1022.46 1022.62 1022.61 1022.46 1022.19 1021.86 1021.52 1021.20 1020.92 1020.69 1020.48 1020.28 1020.05 1019.77 1019.44 1019.06 1018.66 1018.26 1017.88 1017.55 1017.27 1017.02 1016.79 1016.54 1016.27 1015.95 1015.58 1015.17 1014.74 1014.32 1013.94 1013.61 1013.35 1013.16 1013.04 1012.97 1012.94 1012.96 1013.01 1013.11 1013.25 1013.44 1013.68
1020.28 1020.73 1021.24 1021.76 1022.25 1022.64 1022.87 1022.92 1022.78 1022.49 1022.10 1021.68 1021.28 1020.95 1020.70 1020.51 1020.37 1020.22 1020.02 1019.76 1019.44 1019.05 1018.64 1018.24 1017.88 1017.58 1017.34 1017.14 1016.96 1016.76 1016.52 1016.20 1015.80 1015.35 1014.87 1014.39 1013.93 1013.54 1013.21 1012.96 1012.77 1012.63 1012.54 1012.48 1012.47 1012.51 1012.61 1012.78 1013.03
1020.57 1021.13 1021.74 1022.34 1022.85 1023.21 1023.35 1023.26 1022.96 1022.50 1021.97 1021.44 1020.99 1020.65 1020.42 1020.30 1020.22 1020.13 1019.99 1019.76 1019.44 1019.05 1018.63 1018.22 1017.86 1017.58 1017.38 1017.23 1017.10 1016.94 1016.72 1016.42 1016.02 1015.54 1015.01 1014.46 1013.95 1013.48 1013.09 1012.77 1012.51 1012.30 1012.13 1011.99 1011.90 1011.86 1011.91 1012.05 1012.28
1020.90 1021.59 1022.33 1023.01 1023.54 1023.84 1023.87 1023.63 1023.15 1022.52 1021.83 1021.20 1020.68 1020.33 1020.13 1020.06 1020.06 1020.03 1019.94 1019.75 1019.44 1019.05 1018.62 1018.19 1017.83 1017.56 1017.38 1017.27 1017.18 1017.07 1016.89 1016.60 1016.21 1015.72 1015.16 1014.58 1014.02 1013.50 1013.04 1012.65 1012.32 1012.03 1011.78 1011.56 1011.38 1011.26 1011.22 1011.30 1011.49
1021.26 1022.11 1022.97 1023.72 1024.25 1024.50 1024.40 1024.00 1023.34 1022.53 1021.69 1020.95 1020.38 1020.01 1019.84 1019.83 1019.88 1019.93 1019.89 1019.72 1019.43 1019.03 1018.59 1018.16 1017.79 1017.52 1017.36 1017.27 1017.22 1017.15 1017.01 1016.75 1016.38 1015.90 1015.35 1014.75 1014.16 1013.61 1013.11 1012.67 1012.27 1011.91 1011.57 1011.25 1010.97 1010.75 1010.61 1010.59 1010.70
1021.65 1022.64 1023.60 1024.39 1024.92 1025.08 1024.86 1024.30 1023.47 1022.50 1021.54 1020.70 1020.08 1019.70 1019.56 1019.59 1019.70 1019.79 1019.79 1019.66 1019.38 1018.99 1018.53 1018.09 1017.72 1017.46 1017.30 1017.24 1017.22 1017.19 1017.09 1016.88 1016.54 1016.09 1015.56 1014.98 1014.39 1013.83 1013.30 1012.82 1012.37 1011.94 1011.52 1011.11 1010.72 1010.38 1010.12 1009.97 1009.96
1022.04 1023.13 1024.14 1024.95 1025.43 1025.51 1025.17 1024.47 1023.50 1022.41 1021.34 1020.44 1019.78 1019.40 1019.28 1019.34 1019.48 1019.62 1019.65 1019.53 1019.26 1018.87 1018.42 1017.98 1017.62 1017.36 1017.22 1017.18 1017.18 1017.18 1017.12 1016.96 1016.67 1016.27 1015.78 1015.23 1014.67 1014.11 1013.59 1013.08 1012.60 1012.11 1011.62 1011.12 1010.62 1010.16 1009.76 1009.47 1009.33
1022.39 1023.51 1024.53 1025.30 1025.71 1025.69 1025.25 1024.43 1023.37 1022.20 1021.08 1020.15 1019.48 1019.11 1019.00 1019.07 1019.23 1019.38 1019.42 1019.31 1019.05 1018.68 1018.24 1017.81 1017.46 1017.22 1017.10 1017.07 1017.11 1017.14 1017.12 1017.00 1016.76 1016.41 1015.97 1015.47 1014.94 1014.42 1013.90 1013.40 1012.89 1012.37 1011.82 1011.23 1010.64 1010.06 1009.53 1009.10 1008.82
1022.63 1023.72 1024.68 1025.37 1025.68 1025.56 1025.03 1024.15 1023.04 1021.85 1020.74 1019.82 1019.17 1018.81 1018.71 1018.78 1018.93 1019.07 1019.10 1018.99 1018.74 1018.38 1017.96 1017.57 1017.24 1017.03 1016.94 1016.94 1016.99 1017.05 1017.05 1016.97 1016.77 1016.47 1016.08 1015.63 1015.16 1014.67 1014.19 1013.70 1013.18 1012.64 1012.04 1011.40 1010.72 1010.05 1009.42 1008.87 1008.46
1022.71 1023.70 1024.54 1025.11 1025.30 1025.10 1024.51 1023.61 1022.51 1021.37 1020.31 1019.45 1018.85 1018.51 1018.41 1018.47 1018.60 1018.70 1018.70 1018.58 1018.33 1017.99 1017.62 1017.26 1016.98 1016.81 1016.75 1016.78 1016.85 1016.92 1016.94 1016.87 1016.70 1016.44 1016.10 1015.70 1015.28 1014.84 1014.39 1013.92 1013.41 1012.86 1012.24 1011.56 1010.83 1010.10 1009.39 1008.77 1008.26
Thickness
5821 5818 5814 5800 5776 5758 5751 5759 5769 5772 5775 5783 5787 5783 5774 5767 5762 5760 5780 5789 5788 5786 5784 5782 5780 5778 5776 5774 5772 5771 5769 5768 5767 5766 5765 5764 5764 5763 5763 5762 5762 5762 5762 5762 5762 5762 5762 5763 5763
5822 5817 5806 5787 5763 5742 5748 5763 5766 5773 5782 5788 5786 5782 5774 5770 5775 5776 5781 5786 5786 5784 5782 5781 5779 5777 5775 5773 5772 5770 5769 5768 5767 5766 5765 5764 5764 5763 5763 5762 5762 5761 5761 5761 5760 5761 5761 5761 5761
5822 5816 5794 5775 5757 5745 5751 5765 5769 5779 5786 5784 5778 5777 5771 5766 5773 5776 5783 5785 5783 5781 5779 5777 5776 5775 5773 5771 5770 5769 5768 5767 5766 5766 5765 5764 5764 5763 5763 5762 5762 5761 5761 5760 5760 5759 5759 5759 5759
5817 5802 5787 5767 5752 5755 5759 5765 5773 5777 5780 5779 5775 5767 5768 5770 5772 5778 5783 5782 5778 5776 5775 5774 5773 5772 5771 5769 5768 5768 5767 5766 5766 5765 5764 5764 5763 5763 5763 5762 5762 5761 5761 5760 5760 5759 5759 5758 5758
5812 5791 5770 5755 5753 5759 5764 5769 5773 5769 5768 5769 5769 5759 5758 5768 5774 5777 5778 5776 5773 5772 5771 5769 5769 5768 5768 5767 5766 5766 5765 5765 5765 5764 5764 5764 5763 5763 5763 5762 5762 5761 5761 5760 5760 5759 5758 5758 5757
5796 5783 5757 5746 5751 5758 5762 5766 5768 5763 5763 5765 5763 5755 5753 5763 5767 5769 5771 5770 5768 5766 5765 5764 5764 5764 5764 5764 5764 5764 5763 5763 5763 5763 5763 5763 5763 5762 5762 5762 5762 5761 5761 5760 5760 5759 5759 5758 5757
5788 5773 5756 5751 5749 5752 5759 5765 5758 5755 5755 5757 5761 5752 5752 5758 5761 5763 5764 5763 5761 5759 5758 5758 5757 5758 5759 5760 5761 5761 5761 5761 5761 5761 5761 5761 5761 5761 5761 5761 5761 5761 5760 5760 5760 5759 5759 5758 5757
5796 5774 5756 5751 5749 5749 5758 5761 5757 5753 5751 5759 5758 5745 5742 5750 5757 5758 5757 5755 5754 5753 5753 5752 5752 5753 5754 5755 5757 5758 5758 5757 5758 5758 5758 5759 5760 5760 5760 5760 5760 5760 5760 5760 5759 5759 5759 5758 5758
5798 5764 5749 5752 5751 5749 5755 5754 5753 5755 5750 5749 5748 5744 5744 5748 5750 5749 5747 5745 5744 5745 5746 5747 5747 5748 5749 5751 5752 5753 5753 5754 5754 5755 5756 5756 5757 5758 5758 5758 5759 5759 5759 5759 5759 5758 5758 5758 5758
5785 5756 5758 5762 5759 5752 5750 5748 5747 5742 5737 5735 5736 5738 5740 5740 5739 5736 5734 5732 5733 5734 5737 5739 5740 5742 5743 5745 5747 5748 5749 5750 5751 5751 5753 5753 5754 5755 5755 5756 5757 5757 5757 5757 5758 5757 5757 5757 5757
5780 5762 5762 5761 5761 5756 5748 5743 5743 5734 5724 5725 5723 5724 5727 5728 5726 5724 5723 5722 5723 5725 5727 5730 5731 5733 5735 5737 5740 5742 5743 5745 5746 5747 5748 5749 5750 5752 5753 5753 5754 5755 5756 5756 5756 5756 5756 5756 5755
5771 5764 5764 5760 5761 5753 5745 5740 5732 5727 5721 5723 5722 5720 5718 5716 5714 5712 5712 5712 5714 5715 5716 5720 5722 5724 5727 5729 5731 5734 5736 5738 5740 5742 5744 5745 5746 5748 5749 5750 5751 5752 5752 5753 5753 5753 5753 5753 5753
5765 5758 5759 5756 5753 5746 5740 5731 5725 5719 5719 5718 5715 5711 5707 5705 5703 5703 5703 5703 5703 5703 5706 5709 5712 5714 5717 5719 5722 5725 5728 5730 5733 5735 5737 5739 5741 5743 5744 5746 5747 5748 5749 5750 5750 5750 5750 5751 5751
5762 5755 5750 5747 5744 5740 5729 5723 5719 5711 5713 5709 5704 5699 5697 5696 5695 5694 5693 5692 5692 5693 5695 5698 5701 5704 5706 5709 5712 5715 5718 5722 5725 5728 5731 5733 5735 5738 5740 5741 5743 5744 5746 5747 5747 5747 5747 5748 5749
5761 5745 5739 5737 5736 5731 5724 5709 5706 5708 5705 5698 5693 5691 5690 5688 5687 5685 5684 5684 5684 5684 5686 5688 5692 5693 5695 5698 5701 5705 5709 5712 5716 5719 5723 5726 5729 5732 5734 5736 5738 5740 5741 5743 5744 5744 5744 5745 5745
5749 5732 5721 5728 5729 5725 5715 5695 5702 5703 5697 5688 5684 5683 5682 5681 5680 5679 5678 5678 5677 5677 5677 5679 5682 5683 5686 5688 5691 5695 5699 5702 5706 5710 5714 5717 5721 5724 5727 5730 5732 5734 5736 5738 5739 5739 5739 5740 5741
5731 5718 5716 5718 5724 5718 5707 5694 5697 5697 5690 5682 5678 5676 5675 5674 5674 5673 5672 5672 5671 5670 5670 5671 5673 5675 5677 5680 5683 5686 5689 5693 5697 5701 5704 5708 5712 5715 5719 5722 5724 5727 5729 5732 5733 5735 5735 5735 5736
5720 5718 5715 5710 5715 5709 5697 5690 5691 5691 5685 5678 5674 5672 5670 5668 5668 5668 5667 5667 5665 5665 5664 5664 5666 5667 5669 5672 5675 5678 5681 5684 5688 5692 5695 5699 5703 5707 5710 5714 5716 5719 5721 5724 5726 5728 5729 5731 5731
5731 5720 5710 5709 5712 5702 5691 5685 5685 5684 5679 5674 5671 5669 5667 5665 5666 5665 5664 5663 5661 5660 5659 5659 5659 5660 5662 5663 5665 5668 5671 5675 5679 5682 5686 5690 5694 5698 5702 5705 5708 5710 5713 5716 5719 5720 5722 5724 5725
5723 5711 5705 5704 5706 5695 5683 5681 5682 5682 5678 5674 5671 5667 5665 5663 5663 5662 5661 5659 5657 5655 5655 5655 5654 5655 5656 5656 5658 5660 5663 5666 5670 5673 5677 5681 5685 5689 5693 5696 5699 5702 5704 5707 5710 5713 5714 5717 5719
5716 5708 5703 5698 5692 5688 5680 5673 5676 5679 5679 5676 5673 5669 5666 5663 5660 5660 5658 5657 5655 5654 5653 5652 5651 5651 5652 5652 5653 5656 5658 5660 5662 5665 5669 5673 5676 5680 5684 5688 5691 5694 5697 5699 5703 5706 5707 5709 5712
5707 5715 5710 5698 5682 5671 5675 5656 5670 5672 5673 5673 5670 5667 5664 5663 5661 5659 5658 5656 5655 5654 5653 5651 5650 5649 5649 5649 5648 5648 5649 5650 5653 5656 5660 5665 5669 5672 5675 5679 5683 5686 5690 5693 5696 5700 5702 5703 5704
5711 5713 5705 5695 5681 5667 5667 5657 5663 5670 5667 5669 5669 5668 5666 5665 5663 5661 5659 5657 5656 5655 5652 5651 5649 5648 5647 5646 5645 5644 5645 5646 5648 5651 5654 5658 5661 5664 5667 5671 5674 5678 5682 5686 5689 5693 5696 5698 5700
5714 5700 5689 5676 5668 5658 5666 5655 5660 5663 5670 5673 5673 5671 5669 5667 5665 5662 5661 5659 5656 5655 5653 5651 5648 5647 5646 5644 5643 5642 5642 5643 5644 5646 5648 5651 5654 5657 5659 5663 5666 5669 5674 5678 5683 5687 5690 5693 5696
5703 5683 5663 5662 5650 5654 5667 5661 5664 5681 5680 5679 5675 5672 5671 5668 5665 5662 5660 5658 5656 5655 5653 5651 5648 5646 5645 5643 5642 5640 5640 5640 5640 5640 5642 5644 5646 5649 5651 5654 5657 5661 5666 5671 5676 5680 5684 5688 5691
5696 5685 5662 5656 5648 5651 5664 5661 5676 5688 5689 5685 5681 5677 5673 5670 5667 5664 5663 5660 5658 5656 5654 5651 5648 5646 5644 5642 5640 5639 5638 5637 5637 5637 5637 5638 5640 5642 5644 5647 5650 5654 5658 5663 5668 5673 5677 5682 5685
5695 5680 5678 5659 5658 5650 5656 5668 5683 5690 5688 5685 5681 5677 5674 5672 5670 5668 5666 5664 5661 5659 5656 5652 5649 5646 5644 5642 5640 5638 5637 5636 5635 5634 5634 5635 5636 5638 5640 5642 5645 5648 5651 5656 5660 5665 5670 5675 5678
5703 5683 5668 5660 5653 5648 5653 5661 5669 5685 5683 5683 5680 5678 5676 5675 5673 5671 5669 5667 5664 5662 5659 5655 5651 5648 5645 5642 5640 5638 5636 5634 5633 5632 5631 5631 5632 5633 5635 5637 5639 5642 5645 5649 5653 5657 5661 5666 5670
5696 5684 5667 5655 5655 5645 5645 5660 5688 5692 5693 5687 5684 5683 5680 5678 5676 5674 5672 5670 5667 5665 5661 5658 5654 5650 5647 5644 5641 5638 5635 5634 5632 5630 5629 5629 5629 5630 5631 5632 5634 5636 5639 5642 5646 5649 5653 5658 5662
5706 5694 5674 5665 5659 5649 5644 5661 5700 5698 5697 5693 5690 5688 5686 5683 5680 5677 5675 5673 5670 5668 5664 5661 5657 5653 5649 5646 5642 5639 5636 5634 5631 5630 5628 5627 5627 5627 5627 5628 5629 5631 5634 5636 5639 5642 5645 5649 5654